sat.trackr.live / text

‹ back to catalog

JILIN-1 08

NORAD 43160 · 2018-008F

PAYLOAD ACTIVE UNKNOWN

§ Identity

Operator
Country
PRC
Launch date
2018-01-19
Launch site
JSC
Launch vehicle
Mass (kg)
RCS (m²)

External: N2YO · Heavens-Above · Gunter

§ Orbital elements

Epoch: 2026-09-20T04:28:43.815072Z

Period
93.83 min
Inclination
97.1804°
Eccentricity
0.0008139
Mean motion
15.34745746 rev/d
Perigee alt
456.1 km
Apogee alt
467.2 km
Semi-major
6,839.8 km
B*
1.3286e-4
RAAN
279.8614°
Arg perigee
93.0283°
Mean anomaly
267.1892°
Rev number
47,951

§ Raw data

JILIN-1 081 43160U 18008F   26263.18661823  .00004401  00000+0  13286-3 0  99962 43160  97.1804 279.8614 0008139  93.0283 267.1892 15.34745746479515

JSON: /api/v1/satellites/43160 · /tle

For live sub-satellite position, see the globe view (requires WebGL).

§ Visibility from observer

Set your observer location to see the next 7 days of passes ≥ 10°. The values pass through the URL so the page stays shareable.

No JS? Fill the form by hand. The geolocation button needs JavaScript.

§ Radio — SatNOGS DB

ModeDescriptionDownlinkUplink
BPSK Telemetry 2.245 GHz

1 transmitter · refreshed weekly from db.satnogs.org